Torna al catalogo

FENGYUN 1C DEB

AttivoPO
NORAD 37683·DEBRIS·🇨🇳 China

Lanciato May 10, 1999 da Taiyuan Satellite Launch Center

Loading…

Prossimi Passaggi (prossime 24 ore)

TLE

AggiornatoSource: Space-Track

Epoca: Sep 14, 2026, 11:05 UTC

1 37683U 99025EKY 26257.46235017  .00001108  00000-0  89397-3 0  9991
2 37683  97.9836 122.9736 0580267 141.7451 346.7105 13.32949642329128

Traccia FENGYUN 1C DEB in tempo reale con AllMySat

Download on the App Store